Weather Service Report


618 
ASUS41 KRLX 250810
RWRRLX
West Virginia Regional Weather Roundup
National Weather Service Charleston WV
400 AM EDT MON JUL 25 2016

Note: "fair" indicates few or no clouds below 12,000 feet with no
significant weather and/or obstructions to visibility.

WVZ003-250900-
Northern Panhandle of West Virginia
  
CITY           SKY/WX    TMP DP  RH WIND       PRES   REMARKS
WHEELING         N/A     74  68  81 S6        30.00S                  
$$

WVZ009-250900-
Northwest West Virginia
  
CITY           SKY/WX    TMP DP  RH WIND       PRES   REMARKS
PARKERSBURG      N/A     75  73  93 CALM      30.02R FOG              
$$

WVZ006-250900-
Western West Virginia
  
CITY           SKY/WX    TMP DP  RH WIND       PRES   REMARKS
HUNTINGTON       N/A     77  75  93 SW3       30.01R                  
$$

WVZ015-250900-
West Central West Virginia
  
CITY           SKY/WX    TMP DP  RH WIND       PRES   REMARKS
CHARLESTON       N/A     75  73  93 CALM      30.02S                  
$$

WVZ022-031-250900-
North Central West Virginia
  
CITY           SKY/WX    TMP DP  RH WIND       PRES   REMARKS
CLARKSBURG       N/A     72  70  93 CALM      30.02S                  
MORGANTOWN       N/A     73  70  90 SW3       30.03S                  
$$

WVZ025-035-042-045-250900-
Southern West Virginia
  
CITY           SKY/WX    TMP DP  RH WIND       PRES   REMARKS
BECKLEY          N/A     69  66  90 SE3       30.13S                  
LOGAN          FOG       75  73  94 CALM      30.06S VSB<1/4          
BLUEFIELD        N/A     70  64  81 SW6       30.16R                  
LEWISBURG        N/A     66  65  95 CALM      30.13R                  
$$

WVZ047-250900-
Northern Mountains of West Virginia
  
CITY           SKY/WX    TMP DP  RH WIND       PRES   REMARKS
ELKINS           N/A     68  65  90 CALM      30.10R FOG              
$$

WVZ052-250900-
Eastern Panhandle of West Virginia
  
CITY           SKY/WX    TMP DP  RH WIND       PRES   REMARKS
MARTINSBURG      N/A     74  71  91 CALM      29.98S                  
PETERSBURG       N/A     73  72  95 CALM      30.03S                  
$$
  

Return to Home page


Western Regional Climate Center, wrcc@dri.edu